Presure
134 214 199 200 202 192 193 150 193 184 81 86 191 184 184 175 91 172 133 173 177 135 183 122 137 127 121 123 152 133 137 104 157 143 113 102 122 135 106 97 135 137 112 136 111 138 90 90 174
139 128 163 177 194 189 199 175 182 142 120 115 84 175 179 183 149 127 160 151 170 133 179 142 139 132 136 143 127 148 134 102 129 145 143 147 123 131 125 109 128 119 134 108 143 161 159 138 163
140 212 211 197 213 92 199 191 159 68 169 155 80 91 113 163 127 165 168 189 150 149 129 143 142 130 142 147 139 134 128 102 99 141 128 116 132 159 127 134 128 117 102 110 123 115 150 152 130
145 254 221 214 191 211 194 165 195 196 195 185 173 99 94 84 105 191 178 167 188 160 125 172 178 134 133 136 130 130 110 127 136 144 106 103 121 140 138 103 122 98 123 122 116 109 112 117 120
295 276 238 187 185 198 196 199 202 197 178 165 178 168 157 166 93 92 173 180 186 158 134 175 131 136 131 134 134 139 146 139 123 142 100 98 120 105 102 94 104 120 117 113 107 118 142 138 127
295 276 259 213 207 120 198 199 188 195 164 170 192 152 174 178 180 95 91 181 111 178 161 189 123 122 125 136 130 125 136 138 132 131 141 140 125 138 123 104 116 111 115 104 110 97 103 121 115
169 280 244 229 211 203 192 194 199 183 194 206 199 157 172 184 181 185 186 184 95 179 188 184 193 180 192 126 126 126 134 183 136 127 95 183 182 145 100 100 129 97 103 119 111 119 100 126 127
302 301 284 229 234 219 195 192 190 178 133 187 188 186 182 147 184 170 182 178 110 98 180 176 187 188 203 170 190 178 186 181 132 131 132 144 122 129 105 98 100 99 118 114 99 106 125 127 124
274 286 295 296 261 229 214 199 189 193 202 207 202 198 196 185 181 183 188 187 185 182 94 99 181 187 201 201 169 178 174 178 120 126 113 108 125 153 135 116 125 121 93 100 125 121 122 122 125
235 252 273 287 303 287 228 213 203 200 197 204 204 183 196 193 193 191 187 197 193 192 193 149 90 192 184 193 197 171 176 176 174 177 149 179 187 139 191 192 187 96 167 128 127 120 110 120 153
240 237 236 254 272 282 295 246 222 213 202 190 190 194 126 207 203 204 203 205 206 175 198 154 197 95 111 193 211 198 197 165 179 183 180 196 175 108 110 97 179 141 129 124 122 117 116 177 174
220 225 138 238 240 251 267 281 281 231 226 226 215 214 214 216 219 208 197 193 189 182 184 195 181 209 184 96 110 100 200 192 201 173 177 177 199 181 182 180 192 185 184 170 180 188 171 175 178
214 215 190 226 246 241 241 250 260 271 279 248 221 218 212 215 228 199 168 196 195 197 188 173 171 201 124 196 186 94 196 199 203 203 196 182 172 192 198 176 184 187 189 185 180 183 186 180 173
224 198 179 214 220 227 239 246 243 249 250 255 261 254 224 223 227 219 210 206 202 199 198 192 186 185 192 206 188 201 170 96 92 95 96 122 154 173 196 193 171 171 188 182 179 176 177 162 181
238 235 235 132 139 199 220 227 235 245 248 252 244 246 256 262 269 283 221 218 207 204 207 206 205 178 172 170 84 174 175 185 131 191 80 185 135 190 183 173 108 178 169 165 178 176 110 177 108
216 224 265 250 134 154 222 180 199 221 225 235 245 259 261 247 248 256 261 269 290 234 218 213 215 206 198 172 170 191 196 164 182 163 178 189 193 184 192 203 83 97 105 112 150 112 167 175 177
261 259 287 287 286 288 287 287 289 296 296 280 221 229 239 248 252 256 253 250 250 266 290 223 208 209 194 178 188 199 190 177 172 175 177 177 196 193 195 182 90 141 144 155 90 93 102 123 97
246 274 275 264 233 226 239 240 235 235 224 265 269 280 185 140 236 216 247 248 255 253 247 274 273 215 203 185 198 212 202 189 188 196 177 198 173 171 196 193 193 186 201 198 204 190 137 84 89
272 270 269 266 258 252 259 261 257 253 247 246 250 258 264 269 295 230 236 239 237 243 268 243 257 289 104 185 158 194 173 194 206 191 189 206 193 183 181 178 168 182 197 181 181 197 202 189 189
242 264 259 265 254 250 251 258 247 242 239 240 284 295 71 380 295 270 300 229 232 231 234 262 247 259 289 188 163 179 184 188 188 195 79 154 158 178 187 187 200 202 165 169 176 184 184 201 197
256 246 248 262 258 225 239 242 247 237 231 280 374 379 397 383 385 389 337 282 257 225 225 223 260 245 287 195 197 185 168 171 178 196 177 165 170 168 202 201 185 188 185 165 164 181 185 179 185
252 254 252 270 259 258 248 238 239 242 288 300 386 364 374 372 365 369 385 446 273 250 223 227 221 239 240 290 197 198 177 188 77 182 161 166 161 200 203 193 197 197 170 201 203 180 170 169 177
240 252 244 262 267 256 249 241 226 264 271 347 388 359 364 348 350 363 399 428 419 271 279 220 225 232 245 268 255 214 182 204 189 134 176 142 162 132 142 161 192 190 191 159 197 186 185 180 180
232 240 258 241 269 253 244 238 214 261 271 388 379 355 342 335 343 371 381 401 390 321 224 244 215 221 271 230 241 186 200 186 172 183 181 175 161 146 151 176 160 193 207 214 218 223 208 194 187
228 242 247 259 245 249 239 244 233 251 205 408 375 348 335 327 345 363 374 370 377 385 355 260 194 220 211 225 245 218 198 171 196 77 139 135 158 187 176 173 160 163 159 184 195 166 196 157 185
231 236 242 267 243 247 242 241 246 249 267 408 379 349 329 321 337 348 355 356 142 372 386 134 163 257 202 222 256 209 199 215 169 181 185 172 191 169 156 150 179 147 175 177 181 182 192 190 188
232 240 241 262 228 246 232 224 233 198 274 399 378 347 323 319 329 326 328 335 155 336 152 353 171 244 225 249 237 193 198 183 195 181 188 175 180 166 158 204 175 127 208 178 174 192 181 180 161
237 241 249 258 245 249 238 228 227 271 274 381 358 338 314 315 320 318 318 321 227 157 173 366 258 233 216 234 196 210 181 174 177 190 190 198 188 179 196 184 155 168 101 170 120 167 148 166 168
247 237 236 251 240 248 243 224 216 240 265 373 354 320 309 310 313 318 313 314 135 322 338 347 367 262 227 239 242 212 195 200 196 173 196 188 176 179 190 197 167 181 175 121 150 109 170 172 177
250 234 232 246 248 222 243 233 201 235 260 270 316 312 309 316 309 307 313 309 313 220 321 333 349 272 237 214 225 241 215 204 199 200 197 177 191 198 184 180 185 170 200 171 198 177 186 160 138
Wind_Speed
31 65 58 58 57 49 53 48 58 44 26 21 46 47 47 44 24 43 36 40 40 35 38 33 34 32 30 30 33 30 30 22 32 30 24 21 23 22 19 19 20 19 23 20 18 17 17 18 24
34 31 43 46 48 50 61 55 52 34 36 37 25 46 45 45 38 36 41 38 40 37 40 39 37 34 34 35 32 35 31 24 29 32 32 31 26 25 25 24 22 23 22 25 22 22 20 22 24
37 56 60 55 59 20 62 60 43 8 42 48 16 30 34 45 38 45 43 46 39 42 36 43 39 36 38 39 36 36 33 25 24 34 31 27 30 34 27 25 25 24 24 26 24 26 22 24 25
39 69 63 57 50 61 59 47 61 56 53 48 50 38 33 24 30 47 47 46 46 48 36 46 44 39 37 37 36 36 31 36 36 38 27 25 30 34 32 25 28 22 28 27 28 27 28 27 27
58 67 70 53 53 59 61 63 64 61 51 48 50 52 47 52 32 29 49 49 49 44 40 47 39 42 38 39 37 39 40 39 36 40 27 25 33 26 26 23 26 30 31 30 29 31 31 30 32
52 65 70 61 62 26 62 64 61 62 49 50 54 45 54 54 53 35 30 50 35 49 46 49 35 35 36 43 37 37 39 39 41 38 41 41 37 40 34 29 31 32 33 29 31 27 31 33 34
37 62 61 67 66 62 61 62 65 60 61 62 59 50 55 58 56 55 53 53 33 51 51 49 50 49 50 39 37 38 43 47 40 38 27 49 48 45 29 28 39 29 32 36 35 39 31 38 39
26 42 63 63 72 71 61 63 63 59 39 59 57 57 58 53 60 55 55 54 37 37 52 51 51 50 52 50 49 49 48 48 41 41 42 46 40 39 35 29 31 32 40 38 35 36 41 42 42
20 27 36 52 71 73 70 66 62 66 70 71 67 64 63 60 60 61 61 58 57 57 34 37 53 52 52 53 51 51 52 50 43 45 43 40 45 49 47 39 43 41 34 39 45 43 42 43 45
23 24 27 32 41 61 74 74 70 71 71 72 65 55 63 64 68 65 64 65 60 60 58 50 32 54 51 52 55 53 53 53 52 52 48 52 51 49 52 52 51 38 56 48 48 45 42 46 53
25 28 29 30 36 41 46 70 78 78 73 68 64 64 39 71 72 70 70 71 67 54 60 56 57 39 40 55 55 56 56 55 55 53 53 52 54 39 37 36 51 52 49 49 49 48 47 55 55
32 31 42 34 38 41 44 49 57 77 78 80 81 78 74 75 79 74 71 70 66 60 54 64 57 56 58 35 41 41 56 56 56 56 56 54 53 54 54 53 53 52 53 54 53 53 55 55 57
40 40 40 37 38 44 48 50 54 54 56 71 80 80 77 75 79 73 59 72 71 69 65 62 57 60 36 59 57 40 54 54 54 53 54 56 56 52 53 55 54 53 53 55 54 54 56 57 57
42 47 45 45 45 46 47 51 55 54 57 60 63 70 81 81 78 79 78 76 75 72 71 68 61 57 58 56 59 58 53 42 35 39 42 41 45 57 53 55 56 53 54 55 55 55 55 56 59
45 44 45 43 43 51 53 56 52 53 57 63 66 67 68 69 70 71 83 81 76 76 76 75 72 63 60 60 26 57 58 53 40 57 24 48 37 57 55 53 47 60 55 54 57 58 47 58 45
39 41 50 52 45 46 56 49 51 56 63 63 63 66 69 72 72 73 73 73 81 84 81 79 77 72 64 64 62 65 61 61 58 54 59 58 58 60 56 54 38 41 46 48 56 51 60 60 61
36 38 37 40 42 44 46 49 52 51 56 66 67 68 69 72 74 75 74 73 76 75 83 84 76 72 64 64 70 66 67 63 65 63 63 64 61 60 59 61 49 52 56 60 44 46 54 58 47
36 33 35 38 45 46 46 45 52 53 52 57 59 63 50 39 74 66 76 74 73 76 73 76 87 79 66 68 63 65 69 64 67 61 67 60 67 67 63 61 58 59 57 59 60 63 52 42 47
28 32 35 37 41 48 48 46 48 51 55 59 62 60 62 66 75 76 75 76 75 73 73 73 72 86 31 72 64 56 68 64 67 67 67 59 62 65 66 65 64 60 59 61 60 59 64 65 67
33 31 34 37 40 41 47 45 45 47 56 61 57 54 17 46 62 72 83 75 77 77 74 71 74 74 85 70 71 72 64 72 76 67 30 63 61 70 70 68 65 63 63 64 62 63 62 65 69
31 35 36 35 40 40 44 48 43 44 53 44 44 33 32 38 42 48 59 80 81 80 78 72 74 76 79 79 80 77 77 77 84 73 70 59 59 64 67 66 65 68 65 69 68 64 65 66 67
36 36 38 34 36 37 40 45 44 47 53 55 40 32 27 30 36 42 42 33 80 85 81 78 73 77 78 85 86 89 87 81 31 79 60 62 52 68 64 65 65 67 59 65 67 68 68 70 72
38 38 40 38 39 36 36 36 36 47 51 63 36 27 22 25 32 35 32 28 40 84 91 79 79 75 81 81 82 95 89 90 85 38 75 43 64 55 53 58 70 65 68 57 75 70 70 71 73
39 40 39 40 43 41 36 34 33 44 56 33 32 21 20 26 28 28 27 25 39 43 71 91 80 80 84 78 96 85 93 89 73 83 86 78 57 48 59 55 60 71 75 74 74 75 77 76 76
39 40 39 38 41 45 36 41 32 40 35 29 22 17 18 22 25 20 15 20 29 37 60 92 62 83 79 83 91 99 91 80 98 33 47 55 57 81 63 64 63 65 62 71 70 59 69 62 77
42 43 40 38 34 41 39 38 39 42 56 28 18 12 14 16 15 8 6 13 41 29 40 38 50 88 82 84 88 101 96 101 79 87 89 79 84 52 44 58 66 62 73 70 74 73 72 72 77
39 41 41 37 34 38 36 30 34 30 62 29 15 9 12 12 8 5 5 9 36 26 46 38 52 88 84 88 96 91 99 92 97 93 97 80 81 55 47 83 63 50 76 69 72 72 74 73 71
38 38 42 39 31 33 38 28 29 59 64 33 20 4 9 9 6 4 4 7 32 47 44 31 44 89 92 91 95 108 93 87 86 105 102 101 98 83 96 88 65 75 45 75 39 80 64 76 74
40 35 39 39 33 35 33 28 22 39 58 31 19 9 13 9 5 3 4 7 40 13 16 29 30 102 97 95 102 110 101 103 102 86 108 100 78 88 95 92 69 90 72 50 64 46 80 84 78
38 35 38 36 35 28 35 35 29 33 55 64 24 18 14 9 4 2 1 3 9 24 18 25 28 108 100 99 104 111 118 111 109 113 107 86 101 110 91 84 88 67 88 80 79 83 87 66 49
Wind_Direction
252 247 247 249 248 248 247 249 249 241 258 242 252 253 253 247 247 250 245 249 251 247 250 243 243 244 242 246 241 239 246 242 245 248 243 244 251 257 246 244 256 258 256 266 267 268 262 267 275
258 252 253 249 247 247 246 247 248 238 240 248 257 247 250 252 252 247 248 247 248 247 250 246 243 246 244 246 249 247 242 241 247 248 250 251 250 254 252 251 256 257 262 263 269 272 268 270 272
260 239 246 246 241 283 245 245 248 292 244 243 260 246 243 245 240 247 250 254 246 247 243 246 245 246 247 246 249 248 253 241 243 252 247 250 253 256 251 256 258 260 263 265 265 270 270 271 277
259 231 236 242 239 239 244 250 248 248 247 239 242 235 244 252 248 255 249 243 255 244 243 252 252 245 245 245 249 248 242 250 254 255 248 250 254 257 257 255 257 259 262 262 265 272 272 274 275
225 225 231 239 240 242 243 246 248 249 242 240 238 245 249 246 251 247 245 251 252 249 247 248 247 249 245 247 247 251 254 250 251 253 250 252 255 250 252 254 257 259 261 264 270 270 271 274 278
231 227 229 235 239 242 241 242 244 245 246 245 242 242 245 245 247 248 249 252 238 249 250 254 242 242 244 251 247 250 254 250 255 252 255 256 255 255 249 256 256 260 260 268 268 275 275 276 277
252 229 235 232 236 238 240 242 246 248 247 248 247 245 245 247 245 247 249 250 243 250 255 253 256 251 252 247 244 246 252 250 248 251 248 252 252 257 257 260 259 270 268 263 267 269 273 273 275
249 245 235 234 234 237 242 243 245 251 249 246 245 245 243 256 249 249 246 246 241 243 251 249 253 255 252 251 251 250 252 251 245 248 251 250 253 254 254 256 258 259 263 265 268 269 271 273 276
273 254 246 243 238 236 240 245 248 248 249 247 246 248 252 250 250 253 252 249 249 250 245 245 249 252 254 252 249 251 250 252 243 247 247 250 255 257 258 255 257 258 263 264 264 269 271 274 275
270 271 260 253 249 245 240 243 245 247 250 251 247 245 249 250 251 250 253 253 250 252 252 253 248 253 251 255 250 250 251 251 252 253 250 255 255 255 257 257 256 256 261 260 263 268 269 273 271
270 263 256 259 255 252 250 244 243 244 247 251 250 245 244 249 250 250 248 251 250 243 250 252 253 248 248 253 252 250 251 249 251 252 253 253 256 257 254 254 256 259 259 261 264 268 269 267 268
250 254 262 256 254 255 254 252 249 245 247 247 251 251 248 249 252 250 249 249 249 245 239 250 244 251 248 244 247 244 249 250 251 252 253 252 253 256 259 259 257 256 256 259 261 260 266 266 267
249 250 255 252 259 256 254 253 253 251 251 249 248 250 250 246 248 247 245 248 249 249 247 248 245 249 251 253 251 246 251 249 251 251 250 251 253 253 252 260 259 257 256 257 259 260 260 262 266
255 253 254 251 252 253 258 257 254 253 253 252 251 249 248 250 245 245 246 244 245 246 247 245 243 242 247 241 251 251 250 246 253 254 252 254 254 251 251 252 259 258 255 258 260 261 262 263 263
263 262 263 263 263 253 256 255 254 257 255 252 249 250 249 248 248 246 246 246 242 243 244 246 245 242 248 249 255 249 249 250 254 251 268 253 259 250 250 252 260 257 259 260 260 263 264 264 265
262 262 264 261 264 264 260 260 256 253 256 255 255 251 248 247 247 245 242 241 242 240 240 241 241 239 238 249 246 249 247 246 249 250 251 254 253 251 252 252 270 267 270 268 262 264 265 266 266
271 271 274 276 276 276 274 277 277 274 271 265 252 252 250 248 246 244 243 240 242 239 236 237 239 238 236 238 249 249 249 248 250 249 251 252 252 251 251 250 273 261 260 261 267 269 268 267 267
273 280 278 274 267 265 268 269 271 271 272 272 268 262 261 262 246 247 243 242 237 238 236 234 232 235 231 236 243 243 245 252 253 247 249 249 250 251 253 253 252 251 258 260 263 260 263 269 270
289 283 282 279 278 279 278 278 276 276 274 273 270 264 258 253 246 245 242 241 241 237 234 233 230 230 238 236 245 245 246 257 253 247 248 246 250 251 252 252 251 253 253 254 258 264 264 262 261
285 290 286 284 279 281 283 282 277 275 276 275 280 272 217 260 249 242 238 239 238 239 236 230 228 227 224 233 245 240 239 245 245 246 269 254 252 250 252 252 253 254 255 256 257 260 262 266 265
300 289 285 285 285 277 283 285 279 277 277 276 320 301 276 266 261 254 243 233 233 236 235 230 226 224 222 232 225 232 250 248 244 237 247 254 255 251 249 250 253 255 254 255 259 259 261 262 264
311 303 296 299 289 286 283 284 286 289 318 324 322 304 286 271 261 260 258 263 227 229 234 231 227 225 219 220 228 223 240 234 272 243 259 255 256 248 247 248 251 252 259 256 257 256 259 262 265
305 311 300 309 306 293 291 289 283 318 320 329 316 305 288 273 272 277 277 250 227 222 222 230 226 222 219 219 224 213 238 228 237 243 252 251 253 259 258 257 250 257 261 269 262 260 259 262 266
300 304 317 302 317 305 305 301 283 327 332 316 306 303 289 285 290 292 279 235 225 233 224 223 227 223 217 217 206 236 221 235 251 246 252 262 261 256 264 248 260 260 265 265 265 261 259 262 263
293 307 312 315 310 307 305 305 305 330 303 330 298 301 294 297 310 302 267 234 233 227 222 217 224 221 222 213 216 212 225 254 232 278 241 247 252 254 258 250 258 262 262 263 260 267 259 273 265
297 303 306 317 307 310 311 316 329 334 345 337 300 295 292 307 317 311 269 233 252 226 228 254 242 213 225 213 212 215 221 220 255 248 247 253 243 264 253 263 255 263 258 261 259 260 260 265 268
295 304 306 314 306 318 308 312 332 271 347 347 323 314 305 315 312 308 272 248 256 227 259 233 241 212 217 213 208 229 223 243 231 245 244 260 253 266 262 246 255 267 252 256 269 265 266 275 274
297 304 308 311 312 320 312 315 336 340 350 354 346 337 331 331 333 266 250 240 245 251 253 225 241 213 217 214 226 212 241 252 249 238 242 241 250 262 250 259 266 266 287 268 263 270 273 270 279
301 299 302 312 313 323 323 316 316 344 353 3 9 359 1 347 335 276 226 221 254 215 218 217 221 209 211 211 208 215 230 227 231 260 238 245 262 262 256 251 267 260 266 282 270 277 274 277 276
297 295 298 312 316 307 322 327 280 348 355 357 4 12 14 8 9 26 152 207 214 249 206 209 215 206 211 217 212 210 217 224 230 233 238 263 249 244 264 267 260 269 259 269 264 271 271 271 269